CZ-3B R/B, 44796

Orbit data source: Space-Track

CZ-3B R/B, 44796 is space debris in HEO originally from a launch on Sat, 23 Nov 2019 UTC launched from the Xichang Space Center, China (XSC). Debris objects in space refer to the collection of defunct objects orbiting the Earth. Examples of debris include non-operational satellites, rocket bodies, and fragments generated from explosions, collisions, or faulty payload assembly.

Loading next visibility...
Identifier
44796, 2019-078D
Orbit
HEO
Last TLE update
21 hours ago
Origin
Manufacturer
CALT
Mission
Spacecraft
Bus & Motor
CZ-3A STAGE 3, Unknown motor
Mass
~2,800 kg wet, ~2,800 kg dry
Launch date (UTC)
2019-11-23 (6 years ago)
Launch vehicle
Unknown
Launch site
Xichang Space Center, China (XSC)
Object type
Payload
Rocket body
Debris
Shape & HBR
Cyl + 1 Nozzle, 12.38 m
Radar Cross Section
32.704 m², Large (>1 m²)

Expand to show TLE details & history

TLE from 21 hours ago
0 CZ-3B R/B
1 44796U 19078D   25181.52325736  .00000211  00000-0  39282-3 0  9996
2 44796  54.9100 239.3076 5388949 145.3762 265.9838  4.81348949 96517
Epoch: 2025-06-30T12:33Z
TLE epoch observation values (Epoch: 2025-06-30T12:33:29.435Z)
Latitude
0.00002°
Longitude
132.11134°
Altitude
12,509.852 km
Speed
3.913 km/s
True Right ascension
15h 57m 15s
True Declination
0° 00' 00"
Sunlit
Object was in daylight at epoch
Visualization orbit readout
Latitude
41.28139°
Longitude
-86.24441°
Altitude
595.058 km
Speed
9.358 km/s
Apparent Right ascension
05h 09m 40s
Apparent Declination
5° 40' 41"
Sunlit
Object is in daylight
Visualization observer readout
Local Sidereal Time
21:22:33
Azimuth
67.745° E
Elevation
-16.282°
Doppler factor
1
Orbital elements
Apogee altitude
16,423.731 km
Perigee altitude
454.076 km
Semi-major axis
14,817.04 km
Eccentricity
0.53889
Inclination
54.91°
RAAN
239.3076°
Arg. of periapsis
145.3762°
True anomaly
Unknown
Mean anomaly
265.9838°
Eccentric anomaly
Unknown
Mean motion
1.20337 °/min
Orbital period
299.16 mins
BSTAR
0.00039282
Loading maneuver chart data...
Loading SW <> Apogee altitude chart data...
Loading historical data...
Loading historical data...
Loading historical data...
Loading historical data...
Loading historical data...
Loading historical data...
Loading historical data...
Other satellites on launch #78 in the year 2019 (2019-11-23 UTC)

CZ-3B R/B Visibility forecast

Observer location: undefined°, undefined°

Span
Click to sort rows by Start time (UTC) header in descending order
Start Az.
Max El. time (UTC)
Max El. Az.
Max El.
End time (UTC)
End Az.
5 mins2025-07-01 14:42:13.626Z293.431° NW2025-07-01 14:45:13.626Z233.341° WSW24.169°2025-07-01 14:47:13.626Z180.494° SSW
119 mins2025-07-02 03:28:13.626Z186.607° SSW2025-07-02 05:09:13.626Z130.291° SE42.248°2025-07-02 05:27:13.626Z52.359° ENE
|